Location: Powder Track
(41.8531°N, 72.3584°W)
Time: 16:15:16
(UTC+00:00)

Vanguard 1 Rocket - Pass Details

Date: 09 August 2021
Orbit: 650 x 4226 km, 34.3° (Epoch: 20 September)

Event Time Altitude Azimuth Distance (km) Brightness Sun altitude
Rises 11:15:46 0° 220° (SW) 8,170 11.8 14.2°
Reaches altitude 10° 11:21:38 10° 215° (SW) 7,332 11.7 15.3°
Maximum altitude 11:45:25 46° 151° (SSE) 4,657 11.5 19.7°
Drops below altitude 10° 12:03:00 10° 86° (E) 5,630 13.5 23.0°
Sets 12:06:42 0° 81° (E) 6,241 13.1 23.7°
